Dallas/Ft Worth, TX

1:44 PM CDT on July 20, 2017 (GMT -0500)
Dallas-Fort Worth International

Weather History for KDFW - June, 2013

Change the Weather History Date:

Monday, June 24, 2013

  Actual Average Record
Temperature  
Mean Temperature 86 °F 83 °F  
Max Temperature 95 °F 93 °F 106 °F (1980)
Min Temperature 76 °F 73 °F 61 °F (1903)
Degree Days  
Heating Degree Days 0 0  
Month to date heating degree days 0 0  
Since 1 June heating degree days 0 0  
Since 1 July heating degree days 2045 2284  
Cooling Degree Days 21 18  
Month to date cooling degree days 401 381  
Year to date cooling degree days 790 803  
Since 1 June cooling degree days 401 381  
Growing Degree Days 35 (Base 50)    
Moisture  
Dew Point 66 °F    
Average Humidity 55    
Maximum Humidity 76    
Minimum Humidity 34    
Precipitation  
Precipitation 0.00 in 0.12 in 3.84 in (2017)
Month to date precipitation 2.14 3.17  
Year to date precipitation 15.30 19.42  
Sea Level Pressure  
Sea Level Pressure 29.93 in    
Wind  
Wind Speed 15 mph (South)    
Max Wind Speed 25 mph    
Max Gust Speed 30 mph    
Visibility 10 miles    
Events      
T = Trace of Precipitation, MM = Missing Value Source: NWS Daily Summary

Daily Weather History Graph

Daily Weather History Graph

Search for Another Location

Airport or City:

Trip Planner

Search our weather history database for the weather conditions in past years. The results will help you decide how hot, cold, wet, or windy it might be!

Date:

Astronomy

Jun. 24, 2013 Rise Set
Actual Time 6:21 AM CDT 8:40 PM CDT
Civil Twilight 5:52 AM CDT 9:08 PM CDT
Nautical Twilight 5:17 AM CDT 9:44 PM CDT
Astronomical Twilight 4:38 AM CDT 10:22 PM CDT
Moon 9:50 PM CDT (6/24) 7:44 AM CDT (6/24)
Length of Visible Light 15h 16m
Length of Day
14h 19m
Full, 98% of the Moon is Illuminated
Jun 24
Full
Jun 29
Last Quarter
Jul 8
New
Jul 15
First Quarter
Jul 22
Full

Hourly Weather History & Observations

Time (CDT) Temp. Heat Index Dew Point Humidity Pressure Visibility Wind Dir Wind Speed Gust Speed Precip Events Conditions
12:53 AM 82.9 °F 84.6 °F 64.9 °F 54% 29.92 in 10.0 mi SSE 10.4 mph - N/A   Partly Cloudy
1:53 AM 82.0 °F 84.1 °F 66.0 °F 58% 29.92 in 10.0 mi South 13.8 mph 20.7 mph N/A   Clear
2:53 AM 81.0 °F 83.0 °F 66.0 °F 60% 29.93 in 10.0 mi South 13.8 mph - N/A   Clear
3:53 AM 79.0 °F - 66.0 °F 64% 29.94 in 10.0 mi South 11.5 mph - N/A   Clear
4:53 AM 78.1 °F - 66.9 °F 68% 29.94 in 10.0 mi South 11.5 mph - N/A   Clear
5:53 AM 77.0 °F - 68.0 °F 74% 29.96 in 10.0 mi South 16.1 mph 23.0 mph N/A   Partly Cloudy
6:53 AM 77.0 °F - 69.1 °F 76% 29.97 in 10.0 mi South 15.0 mph 24.2 mph N/A   Scattered Clouds
7:39 AM 77.0 °F - 70.0 °F 79% 30.01 in 10.0 mi South 17.3 mph - N/A   Mostly Cloudy
7:53 AM 78.1 °F - 70.0 °F 76% 29.99 in 10.0 mi South 18.4 mph 25.3 mph N/A   Mostly Cloudy
8:53 AM 80.1 °F 83.2 °F 70.0 °F 71% 30.00 in 10.0 mi SSW 25.3 mph 31.1 mph N/A   Mostly Cloudy
9:07 AM 81.0 °F 84.4 °F 70.0 °F 69% 30.02 in 10.0 mi South 16.1 mph - N/A   Scattered Clouds
9:53 AM 82.9 °F 87.0 °F 70.0 °F 65% 30.00 in 10.0 mi South 19.6 mph - N/A   Scattered Clouds
10:53 AM 86.0 °F 90.1 °F 69.1 °F 57% 29.99 in 10.0 mi South 16.1 mph - N/A   Scattered Clouds
11:53 AM 89.1 °F 92.9 °F 68.0 °F 50% 29.99 in 10.0 mi South 15.0 mph 23.0 mph N/A   Scattered Clouds
12:53 PM 91.0 °F 95.2 °F 68.0 °F 47% 29.98 in 10.0 mi SSE 13.8 mph - N/A   Scattered Clouds
1:53 PM 93.0 °F 96.4 °F 66.9 °F 42% 29.95 in 10.0 mi South 20.7 mph 25.3 mph N/A   Scattered Clouds
2:53 PM 93.0 °F 95.9 °F 66.0 °F 41% 29.92 in 10.0 mi South 15.0 mph 28.8 mph N/A   Mostly Cloudy
3:53 PM 93.0 °F 94.6 °F 64.0 °F 38% 29.91 in 10.0 mi South 17.3 mph 27.6 mph N/A   Mostly Cloudy
4:53 PM 95.0 °F 96.0 °F 63.0 °F 34% 29.88 in 10.0 mi South 18.4 mph 26.5 mph N/A   Mostly Cloudy
5:53 PM 93.0 °F 93.8 °F 62.1 °F 36% 29.87 in 10.0 mi South 16.1 mph 26.5 mph N/A   Mostly Cloudy
6:53 PM 93.0 °F 93.8 °F 62.1 °F 36% 29.86 in 10.0 mi South 15.0 mph - N/A   Mostly Cloudy
7:53 PM 91.9 °F 92.9 °F 63.0 °F 38% 29.86 in 10.0 mi SSE 10.4 mph - N/A   Mostly Cloudy
8:53 PM 89.1 °F 90.0 °F 63.0 °F 42% 29.86 in 10.0 mi SE 10.4 mph - N/A   Scattered Clouds
9:53 PM 89.1 °F 90.3 °F 64.0 °F 43% 29.87 in 10.0 mi SSE 13.8 mph - N/A   Scattered Clouds
10:53 PM 88.0 °F 89.3 °F 64.0 °F 45% 29.89 in 10.0 mi SE 13.8 mph - N/A   Partly Cloudy
11:53 PM 86.0 °F 87.6 °F 64.9 °F 49% 29.91 in 10.0 mi SSE 10.4 mph - N/A   Scattered Clouds